Regional Weather Roundup
Issued by NWS Portland, ME

Current Version | Previous Version | Text Only | Print | Product List | Glossary Off
Versions: 1 2 3 4 5 6 7 8 9 10 11 12 13 14 15 16 17 18 19 20 21 22 23 24 25 26 27 28 29 30 31 32 33 34 35 36 37 38 39 40 41 42 43 44 45 46 47 48 49 50
000 ASUS41 KGYX 211405 RWRGYX WEATHER ROUNDUP FOR MAINE AND NEW HAMPSHIRE NATIONAL WEATHER SERVICE GRAY ME 900 AM EST MON JAN 21 2019 MEZ002-005-006-010-012-015-018-020-021-024-026-027-029-211500- MAINE CITY SKY/WX TMP DP RH WIND PRES REMARKS PORTLAND CLOUDY 5 -9 52 NW9G22 29.66R SANFORD FLURRIES 1 -8 66 W16G22 29.66R WCI -19 BAR HARBOR FLURRIES 11 4 73 NW6 29.54R WISCASSET CLOUDY 4 -9 55 NW8 29.63R ROCKLAND FLURRIES 8 -3 61 VRB7G20 29.57R FRYEBURG CLOUDY 3 -13 47 SW8 29.62R LEWISTONAUBURN FLURRIES 2 -10 57 NW17G24 29.63R WCI -18 AUGUSTA CLOUDY 3 -9 57 NW9G18 29.59R WATERVILLE FLURRIES 4 -7 60 MISG 29.56R BANGOR LGT SNOW 8 -1 66 NW20 29.54R WCI -11 GREENVILLE N/A -3 -11 68 NW16G26 29.43R WCI -24 MILLINOCKET LGT SNOW 7 -1 70 NW8G18 29.52R HOULTON LGT SNOW 6 1 80 NW9 29.43R VSB 3/4 PRESQUE ISLE LGT SNOW 5 -1 76 NW12G24 29.47R WCI -11 FRENCHVILLE LGT SNOW 2 -6 69 N20G36 29.40R VSB 1 WCI -19 CARIBOU CLOUDY 5 -3 69 NW16G26 29.43R HAZE WCI -14 $$ NHZ002-005-008-009-011-012-014-211500- NEW HAMPSHIRE CITY SKY/WX TMP DP RH WIND PRES REMARKS PORTSMOUTH CLOUDY 1 -12 52 W17G24 29.68R WCI -19 ROCHESTER CLOUDY 1 -11 57 W12G20 29.66R WCI -16 NASHUA FLURRIES 1 -8 66 NW18G29 29.76R WCI -20 MANCHESTER CLOUDY 1 -12 54 NW21G29 29.74R WCI -21 CONCORD CLOUDY -2 -14 56 NW20G30 29.73R WCI -24 LACONIA FLURRIES -2 -14 56 W14 29.69R WCI -21 PLYMOUTH CLOUDY -3 -16 55 NW15 29.74R WCI -24 BERLIN LGT SNOW -7 -15 68 W9G20 29.67R WHITEFIELD LGT SNOW -6 -15 65 W10 29.72R WCI -24 JAFFREY CLOUDY -5 -14 65 NW12G20 29.68R WCI -23 KEENE LGT SNOW -4 -15 59 W13G21 29.80R WCI -23 LEBANON MIX PCPN -3 -15 56 NW12 29.79R WCI -21 MT WASHINGTON PTSUNNY -20 -21 96 NW37G43 N/A WCI -56 $$ VTZ005-007-008-211500- VERMONT CITY SKY/WX TMP DP RH WIND PRES REMARKS ST JOHNSBURY N/A -7 -17 62 MISG 29.78R MONTPELIER LGT SNOW -10 -15 78 NW14G26 29.79R WCI -31 BURLINGTON LGT SNOW -5 -13 68 NW12 29.92R WCI -23 $$ MAZ007-012-024-CTZ003-RIZ002-NYZ038-NYZ072-211500- SOUTHERN NEW ENGLAND AND NY CITY SKY/WX TMP DP RH WIND PRES REMARKS BOSTON CLOUDY 5 -9 52 W21G32 29.75R WCI -16 WORCESTER FAIR -5 -16 59 W23G37 29.67R WCI -30 NANTUCKET CLOUDY 8 1 73 W21G26 29.76R WCI -12 PROVIDENCE FAIR 2 -8 63 W14G25 29.82R WCI -16 HARTFORD PTSUNNY -3 -17 51 NW17G26 29.89R WCI -24 ALBANY LGT SNOW -7 -18 59 NW18G30 30.01R WCI -30 NEW YORK CITY FAIR 6 -6 57 NW22G39 30.02R WCI -15 $$ ANZ081-ANZ082-ANZ150-NHZ014-MEZ023>029-211500- COASTAL MARINE OBSERVATIONS STATION/POSITION TIME TEMP WIND PRES WAVE AIR SEA DIR/SP/G HT/PER (UTC) (F) (DEG/KT/KT) (MB) (FT/S) MOUNT DESERT ROC 1300 16 310/ 18/ 21 998.6R MATINICUS ROCK 1300 12 330/ 21/ 26 999.3R ISLE OF SHOALS 1300 4 300/ 22/ 26 1003.9R CASHES LEDGE BUO 1350 13 39 1001.6R 8/13 $$ .............KEY.............. WCI - WIND CHILL TC - TEMPERATURE IN CELSIUS VSB - VISIBILITY IN MILES HX - HEAT INDEX FAIR- INDICATES FEW OR NO CLOUDS BELOW 12,000 FT, WITH NO SIGNIFICANT WEATHER AND/OR OBSTRUCTIONS TO VISIBILITY.

USA.gov is the U.S. government's official web portal to all federal, state and local government web resources and services.